Torna al catalogo

STARLINK-36382

AttivoComunicazioniSSO
NORAD 67807·PAYLOAD·🇺🇸 United States

Lanciato Feb 15, 2026 da Vandenberg Space Force Base

Loading…

Prossimi Passaggi (prossime 24 ore)

TLE

AggiornatoSource: CelesTrak SupGP

Epoca: Sep 15, 2026, 04:01 UTC

1 67807C 26032L   26258.16784722 -.00059904  00000+0 -18596-2 0  2588
2 67807  97.2855  84.6320 0001754  89.7607  29.7420 15.33468751    11

Traccia STARLINK-36382 in tempo reale con AllMySat

Download on the App Store